Location: Moonridge Observatory
(39.2268°N, 77.7914°W)
Time: 03:25:46
(UTC-05:00)

Amateur Radio Satellites - All Passes

Search period start: 05 December 2016 02:55
Search period end: 06 December 2016 02:55
Location: Moonridge Observatory, 39.2268°N, 77.7914°W

Satellite Date Start Highest point End Downlink Frequencies (MHz)
Time Altitude Azimuth
CUBESAT XI-V 05 Dec 02:58:30 02:59:18 10° 62° (ENE) 03:00:07 437.345
ITAMSAT 1 05 Dec 03:01:31 03:06:32 50° 100° (E) 03:11:33 435.822/435.867
SWISSCUBE 05 Dec 03:12:45 03:15:45 17° 267° (W) 03:18:47 437.505
BEESAT 05 Dec 03:16:53 03:19:57 17° 267° (W) 03:23:00 436.000
O/OREOS (USA 219) 05 Dec 03:22:03 03:25:14 19° 259° (W) 03:28:24 437.305
GONETS M04 05 Dec 03:30:18 03:34:11 13° 300° (WNW) 03:38:04
KKS-1 05 Dec 03:34:48 03:39:16 82° 75° (ENE) 03:43:46 437.445
SO-50 05 Dec 03:36:44 03:37:23 10° 37° (NE) 03:38:01 436.795
PHONESAT 2.4 05 Dec 03:38:28 03:41:07 64° 4° (N) 03:43:45 2401.200-2431.200
STARS 05 Dec 03:44:33 03:48:48 47° 72° (ENE) 03:53:04 437.465
Gurwin Techsat 1B 05 Dec 04:04:05 04:05:41 11° 301° (WNW) 04:07:16 435.225
AO-85 05 Dec 04:08:23 04:10:46 14° 317° (NW) 04:13:03 145.980
BEESAT 3 05 Dec 04:20:54 04:23:22 16° 110° (ESE) 04:25:52 437.485
CUBESAT XI-V 05 Dec 04:31:25 04:36:00 79° 257° (WSW) 04:40:37 437.345
MOZHAYETS 4 05 Dec 04:36:45 04:37:20 10° 271° (W) 04:37:55
ITAMSAT 1 05 Dec 04:41:57 04:45:37 20° 296° (WNW) 04:49:16 435.822/435.867
HORYU 2 05 Dec 04:42:19 04:45:29 19° 94° (E) 04:48:39 437.375
AO-7 05 Dec 04:46:04 04:54:13 58° 294° (WNW) 05:02:21 29.400- 29.500
BEESAT 2 05 Dec 04:47:43 04:49:53 14° 109° (ESE) 04:52:04 435.950
GOMX 1 05 Dec 05:00:27 05:04:33 21° 92° (E) 05:08:39 467.674
YUBILEINY 05 Dec 05:05:45 05:12:46 25° 68° (ENE) 05:19:43 435.215
Cosmos 2504 05 Dec 05:07:23 05:09:36 11° 56° (NE) 05:11:46 435.465 / 435.565
PHONESAT 2.4 05 Dec 05:13:46 05:16:21 47° 200° (SSW) 05:18:55 2401.200-2431.200
SO-50 05 Dec 05:14:13 05:18:44 67° 57° (ENE) 05:23:10 436.795
BRITE-PL 05 Dec 05:17:13 05:22:38 69° 101° (E) 05:28:16 437.365/2234.400
DOVE 4 05 Dec 05:18:46 05:20:54 12° 88° (E) 05:23:01 437.250
STARS 05 Dec 05:22:53 05:25:22 15° 268° (W) 05:27:53 437.465
Cosmos 2491 05 Dec 05:34:25 05:39:52 18° 78° (ENE) 05:45:18 435.465 / 435.565
BEESAT 3 05 Dec 05:57:01 06:00:40 38° 306° (NW) 06:04:23 437.485
STRAND 1 05 Dec 06:02:36 06:07:14 35° 69° (ENE) 06:11:52 437.568
NOAA 18 05 Dec 06:05:45 06:10:22 26° 96° (E) 06:14:57 137.9125
CUTE-I 05 Dec 06:06:07 06:11:10 42° 99° (E) 06:16:12 437.470
LilacSat-2 05 Dec 06:09:48 06:13:29 51° 100° (E) 06:17:09 437.200
HORYU 2 05 Dec 06:18:04 06:22:09 36° 289° (WNW) 06:26:10 437.375
BEESAT 2 05 Dec 06:23:30 06:27:16 44° 305° (NW) 06:31:06 435.950
RS-15 05 Dec 06:24:53 06:34:52 35° 104° (ESE) 06:45:13 29.354- 29.394
HO-68 05 Dec 06:28:45 06:32:18 14° 89° (E) 06:35:50 435.675
Cubesat XI-IV 05 Dec 06:31:31 06:36:52 74° 102° (ESE) 06:42:11 437.490
NOAA 15 05 Dec 06:32:35 06:37:53 84° 104° (ESE) 06:43:11 137.62
AIST 1 05 Dec 06:37:07 06:41:10 34° 77° (ENE) 06:45:10
GOMX 1 05 Dec 06:37:33 06:42:48 49° 288° (WNW) 06:48:04 467.674
AO-7 05 Dec 06:42:02 06:45:13 13° 314° (NW) 06:48:23 29.400- 29.500
CINEMA 3 05 Dec 06:44:25 06:48:03 21° 92° (E) 06:51:34 145.822/145.860
DOVE 4 05 Dec 06:53:49 06:59:08 76° 284° (WNW) 07:04:17 437.250
Cosmos 2504 05 Dec 06:56:23 07:05:06 61° 78° (ENE) 07:13:18 435.465 / 435.565
SO-50 05 Dec 06:56:59 06:58:34 12° 253° (WSW) 07:00:09 436.795
BRITE-PL 05 Dec 06:57:14 07:00:33 17° 296° (WNW) 07:03:57 437.365/2234.400
YUBILEINY 05 Dec 07:01:31 07:10:16 69° 267° (W) 07:18:59 435.215
AIST 2 05 Dec 07:06:14 07:07:08 11° 107° (ESE) 07:08:02 435.215
CUTE 1.7 + AOD 2 05 Dec 07:11:10 07:14:28 22° 94° (E) 07:17:46 437.475
Cosmos 2491 05 Dec 07:26:42 07:35:31 84° 278° (W) 07:44:20 435.465 / 435.565
CANX-2 05 Dec 07:28:24 07:32:24 41° 98° (E) 07:36:23 2200.000
AAUSAT CUBESAT 2 05 Dec 07:40:39 07:43:14 16° 93° (E) 07:45:49 437.432
STRAND 1 05 Dec 07:42:10 07:46:25 26° 264° (W) 07:50:43 437.568
NOAA 18 05 Dec 07:45:58 07:51:06 39° 292° (WNW) 07:56:10 137.9125
LilacSat-2 05 Dec 07:46:29 07:47:18 11° 295° (WNW) 07:48:07 437.200
CUTE-I 05 Dec 07:46:46 07:50:56 24° 295° (WNW) 07:55:04 437.470
PRISM 05 Dec 07:53:44 07:57:13 28° 69° (ENE) 08:00:43 437.425
UWE-3 05 Dec 07:55:12 07:58:02 17° 92° (E) 08:00:48 435.000/436.395/437.385
SEEDS 05 Dec 07:56:05 08:00:08 49° 99° (E) 08:04:12 437.485
COMPASS 1 05 Dec 08:08:38 08:12:37 45° 99° (E) 08:16:37 437.405
UNISAT 6 05 Dec 08:09:36 08:10:36 11° 62° (ENE) 08:11:35 437.425
Cubesat XI-IV 05 Dec 08:13:28 08:16:16 15° 299° (WNW) 08:19:05 437.490
HO-68 05 Dec 08:13:38 08:20:53 88° 106° (ESE) 08:28:06 435.675
NOAA 15 05 Dec 08:14:47 08:16:55 13° 300° (WNW) 08:19:03 137.62
AIST 1 05 Dec 08:15:26 08:18:27 18° 273° (W) 08:21:27
CINEMA 3 05 Dec 08:20:51 08:25:18 37° 289° (WNW) 08:29:32 145.822/145.860
RS-15 05 Dec 08:34:43 08:46:26 68° 306° (NW) 08:58:45 29.354- 29.394
TIGRISAT 05 Dec 08:37:17 08:40:38 20° 67° (ENE) 08:44:00 435.000
ZACube-1 05 Dec 08:37:58 08:41:44 31° 96° (E) 08:45:26 437.345
ANTELSAT 05 Dec 08:38:17 08:41:48 21° 67° (ENE) 08:45:19 437.575/2403.000
AIST 2 05 Dec 08:40:57 08:45:01 64° 304° (WNW) 08:49:09 435.215
CUBEBUG 2 05 Dec 08:45:41 08:50:06 77° 284° (WNW) 08:54:21 437.445
FUNcube-1 05 Dec 08:46:12 08:50:05 35° 97° (E) 08:53:53 145.935
CUTE 1.7 + AOD 2 05 Dec 08:46:40 08:50:17 28° 290° (WNW) 08:53:53 437.475
DELFI C3 05 Dec 08:49:24 08:50:55 12° 91° (E) 08:52:25 145.870
Cosmos 2504 05 Dec 08:50:46 08:57:48 28° 278° (W) 09:04:32 435.465 / 435.565
JAS-2 05 Dec 09:02:39 09:04:30 11° 60° (ENE) 09:06:18 435.910
YUBILEINY 05 Dec 09:03:16 09:05:16 11° 287° (WNW) 09:07:16 435.215
CANX-2 05 Dec 09:05:18 09:07:54 16° 294° (WNW) 09:10:30 2200.000
AAUSAT CUBESAT 2 05 Dec 09:15:00 09:18:50 37° 288° (WNW) 09:22:39 437.432
Oscar 11 05 Dec 09:17:53 09:22:12 82° 105° (ESE) 09:26:29 145.826/435.025
Cosmos 2491 05 Dec 09:28:34 09:33:44 17° 298° (WNW) 09:38:54 435.465 / 435.565
PRISM 05 Dec 09:29:25 09:32:30 21° 265° (W) 09:35:36 437.425
UWE-3 05 Dec 09:30:40 09:34:38 37° 289° (WNW) 09:38:31 435.000/436.395/437.385
SEEDS 05 Dec 09:33:19 09:35:24 14° 295° (WNW) 09:37:29 437.485
UNISAT 6 05 Dec 09:41:55 09:46:37 82° 259° (WSW) 09:51:18 437.425
COMPASS 1 05 Dec 09:45:30 09:47:46 15° 294° (WNW) 09:50:03 437.405
Cosmos 2499 05 Dec 10:01:43 10:05:33 13° 58° (ENE) 10:09:16 435.465 / 435.565
CUSAT 1 05 Dec 10:02:36 10:05:44 36° 280° (W) 10:08:23 437.405
HO-68 05 Dec 10:03:08 10:07:40 18° 304° (NW) 10:12:11 435.675
TIGRISAT 05 Dec 10:12:35 10:17:01 41° 262° (W) 10:21:27 435.000
ANTELSAT 05 Dec 10:13:53 10:18:15 38° 262° (W) 10:22:35 437.575/2403.000
HUMSAT D 05 Dec 10:14:23 10:18:27 65° 101° (E) 10:22:29 437.325/437.525
ZACube-1 05 Dec 10:14:41 10:17:49 20° 293° (WNW) 10:20:54 437.345
DELFI C3 05 Dec 10:22:08 10:25:58 47° 286° (WNW) 10:29:47 145.870
FUNcube-1 05 Dec 10:23:10 10:26:02 18° 293° (WNW) 10:28:53 145.935
PCSat 05 Dec 10:31:37 10:35:15 19° 105° (ESE) 10:38:55 145.827
NANOSAT C BR1 05 Dec 10:32:35 10:36:27 34° 71° (ENE) 10:40:20 145.865
DANDE 05 Dec 10:37:06 10:42:07 76° 279° (W) 10:45:51 436.750
QB50P2 05 Dec 10:37:15 10:41:20 45° 73° (ENE) 10:45:26 145.880/145.840
POLYITAN 1 05 Dec 10:37:50 10:41:54 43° 72° (ENE) 10:45:59 437.675
JAS-2 05 Dec 10:42:12 10:48:51 79° 74° (ENE) 10:54:43 435.910
QB50P1 05 Dec 10:51:01 10:55:13 61° 75° (ENE) 10:59:28 145.935-145.965
RS-15 05 Dec 10:52:15 11:01:51 26° 335° (NNW) 11:11:42 29.354- 29.394
DUCHIFAT 1 05 Dec 10:54:56 10:59:06 57° 74° (ENE) 11:03:18 145.980
AO-85 05 Dec 10:57:47 11:01:39 49° 55° (NE) 11:05:24 145.980
POPSAT HIP 1 05 Dec 11:12:22 11:16:39 77° 259° (W) 11:20:58 437.405
ESTCUBE 1 05 Dec 11:12:31 11:16:44 38° 98° (E) 11:20:56 437.505/2401.250
AISAT 05 Dec 11:23:35 11:27:00 21° 95° (E) 11:30:24 437.250
GONETS M04 05 Dec 11:38:33 11:47:04 55° 78° (ENE) 11:55:34
CUBEBUG 1 05 Dec 11:51:19 11:55:44 63° 101° (E) 12:00:07 437.445
Cosmos 2499 05 Dec 11:51:49 12:00:28 72° 81° (E) 12:08:26 435.465 / 435.565
BUGSAT 1 05 Dec 11:55:30 11:59:42 76° 258° (WSW) 12:03:58 437.445
50 SAT 05 Dec 11:57:59 12:01:20 38° 99° (E) 12:04:40 437.505
VELOX 1 05 Dec 11:59:50 12:04:11 50° 100° (E) 12:08:31 145.980
Gurwin Techsat 1B 05 Dec 12:03:49 12:07:08 17° 62° (ENE) 12:10:28 435.225
NANOSAT C BR1 05 Dec 12:09:14 12:12:14 19° 266° (W) 12:15:17 145.865
PCSat 05 Dec 12:12:50 12:18:09 57° 301° (WNW) 12:23:31 145.827
Oscar 19 05 Dec 12:13:02 12:17:44 38° 69° (ENE) 12:22:28 437.125/150
QB50P2 05 Dec 12:14:59 12:17:21 14° 268° (W) 12:19:42 145.880/145.840
POLYITAN 1 05 Dec 12:15:22 12:17:52 15° 267° (W) 12:20:24 437.675
DX 1 05 Dec 12:16:14 12:20:22 39° 99° (E) 12:24:28 434.975-435.025
UKube-1 05 Dec 12:25:09 12:29:11 36° 98° (E) 12:33:10 .
QB50P1 05 Dec 12:30:30 12:31:22 10° 270° (W) 12:32:13 145.935-145.965
JAS-2 05 Dec 12:30:51 12:34:16 15° 268° (W) 12:37:31 435.910
TISAT 1 05 Dec 12:31:39 12:32:31 11° 90° (E) 12:33:23 437.305
DUCHIFAT 1 05 Dec 12:33:51 12:35:06 11° 269° (W) 12:36:23 145.980
JUGNU 05 Dec 12:39:02 12:40:07 10° 176° (S) 12:41:12 437.505
SPROUT 05 Dec 12:39:29 12:43:48 85° 281° (W) 12:48:04 437.525
AO-85 05 Dec 12:40:04 12:41:31 12° 252° (WSW) 12:43:00 145.980
ESTCUBE 1 05 Dec 12:50:00 12:53:14 20° 294° (WNW) 12:56:29 437.505/2401.250
AISAT 05 Dec 12:59:28 13:03:30 33° 290° (WNW) 13:07:30 437.250
RS-15 05 Dec 13:11:53 13:20:34 21° 11° (N) 13:29:12 29.354- 29.394
CUBEBUG 1 05 Dec 13:29:37 13:31:27 12° 297° (WNW) 13:33:17 437.445
50 SAT 05 Dec 13:32:47 13:34:16 12° 294° (WNW) 13:35:46 437.505
SWISSCUBE 05 Dec 13:36:07 13:38:19 13° 91° (E) 13:40:29 437.505
GONETS M04 05 Dec 13:36:08 13:43:23 31° 276° (W) 13:50:39
VELOX 1 05 Dec 13:37:38 13:40:12 15° 296° (WNW) 13:42:47 145.980
BEESAT 05 Dec 13:40:19 13:42:27 13° 91° (E) 13:44:33 436.000
Gurwin Techsat 1B 05 Dec 13:41:18 13:46:33 62° 259° (WSW) 13:51:50 435.225
AUBIESAT-1 05 Dec 13:44:21 13:45:33 11° 94° (E) 13:46:44 437.475
Cosmos 2499 05 Dec 13:46:30 13:52:35 22° 281° (W) 13:58:23 435.465 / 435.565
AO-7 05 Dec 13:51:48 13:59:17 39° 61° (ENE) 14:06:48 29.400- 29.500
Oscar 19 05 Dec 13:53:04 13:57:08 24° 265° (W) 14:01:14 437.125/150
DX 1 05 Dec 13:53:13 13:56:14 18° 294° (WNW) 13:59:14 434.975-435.025
M-CUBED/EXP-1 PRIME 05 Dec 13:54:08 13:57:24 19° 97° (E) 14:00:35 437.505
UKube-1 05 Dec 14:01:51 14:04:56 19° 294° (WNW) 14:08:01 .
PCSat 05 Dec 14:02:06 14:02:46 10° 322° (NW) 14:03:25 145.827
TISAT 1 05 Dec 14:04:20 14:08:31 59° 286° (WNW) 14:12:38 437.305
ITUPSAT 1 05 Dec 14:06:00 14:09:51 24° 95° (E) 14:13:40 437.325
BEESAT 3 05 Dec 14:14:32 14:18:32 82° 59° (ENE) 14:22:30 437.485
ITAMSAT 1 05 Dec 14:18:15 14:23:26 69° 74° (ENE) 14:28:37 435.822/435.867
BEESAT 2 05 Dec 14:41:57 14:46:00 73° 58° (ENE) 14:50:01 435.950
MOZHAYETS 4 05 Dec 14:52:15 14:55:19 18° 93° (E) 14:58:22
SWISSCUBE 05 Dec 15:11:47 15:16:28 60° 287° (WNW) 15:21:08 437.505
AUBIESAT-1 05 Dec 15:15:49 15:20:25 71° 289° (WNW) 15:24:48 437.475
BEESAT 05 Dec 15:15:54 15:20:36 61° 286° (WNW) 15:25:16 436.000
RS-15 05 Dec 15:25:57 15:37:39 45° 44° (NE) 15:49:00 29.354- 29.394
M-CUBED/EXP-1 PRIME 05 Dec 15:27:34 15:32:01 44° 293° (WNW) 15:36:19 437.505
KKS-1 05 Dec 15:27:55 15:30:50 17° 93° (E) 15:33:45 437.445
HORYU 2 05 Dec 15:39:42 15:42:35 17° 65° (ENE) 15:45:29 437.375
ITUPSAT 1 05 Dec 15:43:26 15:47:41 33° 291° (WNW) 15:51:55 437.325
AO-7 05 Dec 15:43:59 15:51:51 47° 259° (W) 15:59:49 29.400- 29.500
O/OREOS (USA 219) 05 Dec 15:52:47 15:57:13 53° 107° (ESE) 16:01:39 437.305
ISS 05 Dec 15:59:47 16:02:50 37° 136° (SE) 16:05:54 145.825
ITAMSAT 1 05 Dec 16:00:55 16:03:21 13° 269° (W) 16:05:48 435.822/435.867
SRMSAT 05 Dec 16:04:20 16:05:39 11° 181° (S) 16:06:58 437.500
GOMX 1 05 Dec 16:08:24 16:11:22 17° 63° (ENE) 16:14:27 467.674
NOAA 15 05 Dec 16:14:45 16:17:42 15° 61° (ENE) 16:20:38 137.62
Cubesat XI-IV 05 Dec 16:15:38 16:18:22 14° 60° (ENE) 16:21:06 437.490
DOVE 4 05 Dec 16:24:16 16:25:30 11° 60° (ENE) 16:26:46 437.250
BRITE-PL 05 Dec 16:27:37 16:31:48 63° 75° (ENE) 16:36:18 437.365/2234.400
MOZHAYETS 4 05 Dec 16:28:21 16:32:38 41° 288° (WNW) 16:36:54
CUBESAT XI-V 05 Dec 16:29:17 16:33:16 27° 96° (E) 16:37:15 437.345
LilacSat-2 05 Dec 16:51:03 16:54:04 22° 70° (ENE) 16:57:05 437.200
HO-68 05 Dec 16:59:54 17:01:22 11° 50° (NE) 17:02:49 435.675
AIST 2 05 Dec 17:03:06 17:07:16 57° 56° (NE) 17:11:26 435.215
KKS-1 05 Dec 17:03:20 17:07:35 42° 288° (WNW) 17:11:46 437.445
STARS 05 Dec 17:10:54 17:15:20 75° 286° (WNW) 17:19:43 437.465
HORYU 2 05 Dec 17:14:29 17:18:46 45° 260° (W) 17:23:05 437.375
CUTE-I 05 Dec 17:26:42 17:32:00 64° 73° (ENE) 17:37:19 437.470
NOAA 18 05 Dec 17:30:41 17:35:56 46° 70° (ENE) 17:41:13 137.9125
O/OREOS (USA 219) 05 Dec 17:34:09 17:36:57 16° 304° (NW) 17:39:45 437.305
ISS 05 Dec 17:36:33 17:39:23 26° 332° (NNW) 17:42:15 145.825
Cosmos 2491 05 Dec 17:38:40 17:46:59 46° 76° (ENE) 17:55:15 435.465 / 435.565
RS-15 05 Dec 17:38:41 17:50:43 62° 247° (WSW) 18:02:20 29.354- 29.394
GOMX 1 05 Dec 17:44:38 17:48:58 48° 262° (W) 17:53:39 467.674
CINEMA 3 05 Dec 17:44:47 17:48:15 19° 65° (ENE) 17:51:45 145.822/145.860
NOAA 15 05 Dec 17:51:40 17:56:52 68° 257° (WSW) 18:02:07 137.62
Cubesat XI-IV 05 Dec 17:52:23 17:57:45 77° 257° (WSW) 18:03:09 437.490
DOVE 4 05 Dec 17:57:34 18:02:18 87° 257° (WSW) 18:07:22 437.250
CUTE 1.7 + AOD 2 05 Dec 18:03:48 18:06:08 15° 66° (ENE) 18:08:27 437.475
YUBILEINY 05 Dec 18:05:59 18:13:06 29° 83° (E) 18:20:13 435.215
CUBESAT XI-V 05 Dec 18:06:36 18:10:34 28° 291° (WNW) 18:14:32 437.345
STRAND 1 05 Dec 18:16:01 18:18:03 12° 90° (E) 18:20:05 437.568
CANX-2 05 Dec 18:20:20 18:23:50 26° 70° (ENE) 18:27:19 2200.000
LilacSat-2 05 Dec 18:25:06 18:28:14 23° 264° (W) 18:31:22 437.200
HO-68 05 Dec 18:40:37 18:47:35 59° 69° (ENE) 18:54:37 435.675
AIST 2 05 Dec 18:43:24 18:45:15 13° 252° (WSW) 18:47:05 435.215
SEEDS 05 Dec 18:46:49 18:50:25 29° 71° (ENE) 18:54:01 437.485
UWE-3 05 Dec 18:51:27 18:54:02 15° 65° (ENE) 18:56:36 435.000/436.395/437.385
COMPASS 1 05 Dec 18:58:29 19:01:56 26° 70° (ENE) 19:05:22 437.405
AIST 1 05 Dec 19:05:51 19:09:06 21° 88° (E) 19:12:23
CUTE-I 05 Dec 19:09:23 19:12:27 15° 269° (W) 19:15:32 437.470
NOAA 18 05 Dec 19:12:28 19:16:45 23° 266° (W) 19:21:05 137.9125
ISS 05 Dec 19:16:01 19:16:47 11° 352° (N) 19:17:34 145.825
PCSat 05 Dec 19:19:47 19:22:55 15° 43° (NE) 19:26:01 145.827
CINEMA 3 05 Dec 19:20:13 19:24:57 48° 262° (W) 19:29:49 145.822/145.860
SO-50 05 Dec 19:27:34 19:31:38 28° 113° (ESE) 19:35:40 436.795
Cosmos 2504 05 Dec 19:32:17 19:40:11 52° 89° (E) 19:48:34 435.465 / 435.565
ZACube-1 05 Dec 19:32:35 19:36:13 24° 69° (ENE) 19:39:49 437.345
Cosmos 2491 05 Dec 19:35:52 19:43:33 37° 274° (W) 19:51:15 435.465 / 435.565
CUTE 1.7 + AOD 2 05 Dec 19:37:30 19:41:33 45° 261° (W) 19:45:37 437.475
FUNcube-1 05 Dec 19:40:25 19:44:12 26° 69° (ENE) 19:47:57 145.935
CUBEBUG 2 05 Dec 19:41:38 19:46:23 76° 76° (ENE) 19:51:08 437.445
STRAND 1 05 Dec 19:52:37 19:57:43 71° 286° (WNW) 20:02:46 437.568
CANX-2 05 Dec 19:56:08 19:59:36 24° 265° (W) 20:03:04 2200.000
RS-15 05 Dec 19:57:29 20:00:26 11° 267° (W) 20:03:22 29.354- 29.394
YUBILEINY 05 Dec 20:00:48 20:09:18 57° 282° (WNW) 20:17:55 435.215
AAUSAT CUBESAT 2 05 Dec 20:03:24 20:07:29 68° 259° (W) 20:11:35 437.432
Oscar 11 05 Dec 20:11:14 20:15:26 53° 74° (ENE) 20:19:38 145.826/435.025
SEEDS 05 Dec 20:22:56 20:26:06 21° 266° (W) 20:29:16 437.485
UWE-3 05 Dec 20:25:25 20:30:00 56° 260° (W) 20:34:34 435.000/436.395/437.385
HO-68 05 Dec 20:30:01 20:35:40 25° 266° (W) 20:41:23 435.675
CUSAT 1 05 Dec 20:32:46 20:36:28 84° 81° (E) 20:41:20 437.405
COMPASS 1 05 Dec 20:34:07 20:37:25 23° 265° (W) 20:40:43 437.405
AIST 1 05 Dec 20:42:47 20:46:30 28° 284° (WNW) 20:50:16
ISS 05 Dec 20:53:07 20:54:30 12° 13° (NNE) 20:55:52 145.825
PCSat 05 Dec 21:01:37 21:07:04 90° 72° (ENE) 21:12:29 145.827
HUMSAT D 05 Dec 21:04:16 21:08:11 38° 72° (ENE) 21:12:04 437.325/437.525
DELFI C3 05 Dec 21:06:09 21:10:04 81° 77° (ENE) 21:14:00 145.870
SO-50 05 Dec 21:07:40 21:11:59 34° 309° (NW) 21:16:17 436.795
ZACube-1 05 Dec 21:08:16 21:12:19 31° 264° (W) 21:16:20 437.345
PRISM 05 Dec 21:10:31 21:14:36 53° 101° (E) 21:18:41 437.425
DANDE 05 Dec 21:14:49 21:17:35 49° 80° (E) 21:20:57 436.750
FUNcube-1 05 Dec 21:16:26 21:20:19 28° 264° (W) 21:24:11 145.935
CUBEBUG 2 05 Dec 21:22:52 21:23:28 10° 271° (W) 21:24:04 437.445
Cosmos 2504 05 Dec 21:26:27 21:33:51 34° 289° (WNW) 21:41:39 435.465 / 435.565
UNISAT 6 05 Dec 21:35:39 21:39:02 22° 94° (E) 21:42:22 437.425
Oscar 11 05 Dec 21:50:04 21:51:52 12° 269° (W) 21:53:39 145.826/435.025
TIGRISAT 05 Dec 22:05:11 22:09:22 43° 98° (E) 22:13:27 435.000
ANTELSAT 05 Dec 22:06:29 22:10:45 47° 99° (E) 22:14:53 437.575/2403.000
ESTCUBE 1 05 Dec 22:11:03 22:14:58 31° 70° (ENE) 22:18:54 437.505/2401.250
AISAT 05 Dec 22:20:24 22:23:17 17° 65° (ENE) 22:26:13 437.250
ISS 05 Dec 22:28:36 22:31:44 37° 32° (NNE) 22:34:51 145.825
50 SAT 05 Dec 22:33:34 22:35:26 14° 67° (ENE) 22:37:18 437.505
QB50P1 05 Dec 22:39:38 22:40:24 10° 90° (E) 22:41:10 145.935-145.965
HUMSAT D 05 Dec 22:41:15 22:43:55 16° 267° (W) 22:46:34 437.325/437.525
CUBEBUG 1 05 Dec 22:46:00 22:50:08 44° 72° (ENE) 22:54:18 437.445
PRISM 05 Dec 22:47:36 22:49:25 13° 296° (WNW) 22:51:15 437.425
PCSat 05 Dec 22:48:32 22:49:37 11° 259° (WSW) 22:50:42 145.827
VELOX 1 05 Dec 22:55:56 23:00:00 38° 71° (ENE) 23:04:07 145.980
POPSAT HIP 1 05 Dec 22:59:09 23:02:06 18° 93° (E) 23:05:02 437.405
DX 1 05 Dec 23:10:45 23:14:32 30° 69° (ENE) 23:18:20 434.975-435.025
UNISAT 6 05 Dec 23:11:55 23:15:46 31° 290° (WNW) 23:19:34 437.425
UKube-1 05 Dec 23:18:43 23:22:21 27° 69° (ENE) 23:26:01 .
SPROUT 05 Dec 23:31:24 23:35:38 61° 75° (ENE) 23:39:54 437.525
JAS-2 05 Dec 23:37:11 23:42:23 72° 102° (ESE) 23:47:50 435.910
BUGSAT 1 05 Dec 23:39:30 23:42:13 17° 93° (E) 23:44:54 437.445
TIGRISAT 05 Dec 23:42:56 23:45:40 16° 295° (WNW) 23:48:23 435.000
ANTELSAT 05 Dec 23:44:31 23:47:01 15° 296° (WNW) 23:49:29 437.575/2403.000
ESTCUBE 1 05 Dec 23:48:13 23:51:46 23° 265° (W) 23:55:20 437.505/2401.250
NANOSAT C BR1 05 Dec 23:53:03 23:57:18 75° 103° (ESE) 00:01:29 145.865
AISAT 05 Dec 23:55:12 23:59:24 42° 261° (W) 00:03:38 437.250
QB50P2 05 Dec 23:58:35 00:02:51 81° 284° (WNW) 00:07:04 145.880/145.840
POLYITAN 1 05 Dec 23:59:08 00:03:24 85° 280° (W) 00:07:36 437.675
50 SAT 06 Dec 00:05:17 00:08:26 31° 262° (W) 00:11:36 437.505
ISS 06 Dec 00:05:26 00:08:05 22° 228° (SW) 00:10:43 145.825
QB50P1 06 Dec 00:12:21 00:16:32 60° 285° (WNW) 00:20:40 145.935-145.965
DUCHIFAT 1 06 Dec 00:15:29 00:19:41 65° 285° (WNW) 00:23:49 145.980
CUBEBUG 1 06 Dec 00:24:03 00:26:37 15° 268° (W) 00:29:12 437.445
Cosmos 2499 06 Dec 00:25:17 00:33:35 61° 91° (E) 00:42:17 435.465 / 435.565
Oscar 19 06 Dec 00:26:55 00:29:43 14° 91° (E) 00:32:31 437.125/150
AUBIESAT-1 06 Dec 00:28:41 00:30:19 12° 56° (ENE) 00:32:00 437.475
VELOX 1 06 Dec 00:33:35 00:36:35 18° 266° (W) 00:39:37 145.980
POPSAT HIP 1 06 Dec 00:34:06 00:37:58 34° 289° (WNW) 00:41:47 437.405
GONETS M04 06 Dec 00:37:49 00:46:24 65° 92° (E) 00:54:58
M-CUBED/EXP-1 PRIME 06 Dec 00:39:11 00:42:07 19° 60° (ENE) 00:45:10 437.505
PHONESAT 2.4 06 Dec 00:39:48 00:42:19 39° 159° (SSE) 00:44:50 2401.200-2431.200
SWISSCUBE 06 Dec 00:41:42 00:44:20 15° 63° (ENE) 00:46:58 437.505
BEESAT 06 Dec 00:45:50 00:48:25 15° 63° (ENE) 00:51:00 436.000
DX 1 06 Dec 00:47:18 00:50:42 22° 265° (W) 00:54:09 434.975-435.025
TISAT 1 06 Dec 00:54:15 00:58:30 86° 74° (ENE) 01:02:46 437.305
UKube-1 06 Dec 00:54:48 00:58:19 24° 264° (W) 01:01:53 .
AO-85 06 Dec 01:10:57 01:14:58 25° 113° (ESE) 01:18:47 145.980
SPROUT 06 Dec 01:11:01 01:11:56 11° 270° (W) 01:12:51 437.525
ITUPSAT 1 06 Dec 01:11:45 01:15:41 26° 67° (ENE) 01:19:36 437.325
BUGSAT 1 06 Dec 01:13:50 01:17:43 37° 289° (WNW) 01:21:31 437.445
JAS-2 06 Dec 01:24:34 01:26:55 13° 299° (WNW) 01:29:19 435.910
MOZHAYETS 4 06 Dec 01:53:38 01:56:24 16° 65° (ENE) 01:59:10
Gurwin Techsat 1B 06 Dec 01:58:30 02:03:46 57° 101° (E) 02:08:58 435.225
AUBIESAT-1 06 Dec 02:00:00 02:04:03 69° 254° (WSW) 02:08:26 437.475
O/OREOS (USA 219) 06 Dec 02:03:46 02:08:16 85° 66° (ENE) 02:12:43 437.305
Oscar 19 06 Dec 02:04:18 02:09:26 64° 287° (WNW) 02:14:34 437.125/150
M-CUBED/EXP-1 PRIME 06 Dec 02:12:26 02:16:13 39° 258° (WSW) 02:20:19 437.505
PHONESAT 2.4 06 Dec 02:14:52 02:17:31 67° 355° (N) 02:20:09 2401.200-2431.200
SWISSCUBE 06 Dec 02:16:55 02:21:37 59° 259° (W) 02:26:20 437.505
Cosmos 2499 06 Dec 02:19:59 02:27:14 30° 291° (WNW) 02:34:46 435.465 / 435.565
BEESAT 06 Dec 02:20:58 02:25:40 60° 259° (WSW) 02:30:24 436.000
KKS-1 06 Dec 02:25:34 02:28:04 15° 64° (ENE) 02:30:34 437.445
ITAMSAT 1 06 Dec 02:32:45 02:37:03 26° 95° (E) 02:41:19 435.822/435.867
GONETS M04 06 Dec 02:36:52 02:43:50 26° 292° (WNW) 02:50:51
